{"data":{"norad_id":64897,"epoch":"2026-09-21T17:46:46.238880Z","epoch_age_seconds":64040,"freshness":"FRESH","line1":"1 64897U 25154J   26264.74081295  .00001614  00000+0  14335-3 0  9997","line2":"2 64897  97.6626 327.3361 0003727 315.2247  44.8674 14.97515031 61837","mean_motion":14.97515031,"eccentricity":0.0003727,"inclination_deg":97.6626,"raan_deg":327.3361,"arg_perigee_deg":315.2247,"mean_anomaly_deg":44.8674,"bstar":0.00014335,"rev_number":6183,"period_min":96.159301922893,"perigee_km":571.9859816284,"apogee_km":577.16853483648,"semimajor_km":6952.7142582324,"source":"CELESTRAK","updated_at":"2026-09-22T09:00:30.019618Z"}}